Location: Unspecified
(0.0000°N, 0.0000°E)
Time: 18:29:06
(UTC+00:00)

Envisat - Pass Details

Date: 14 October 2021
Orbit: 764 x 766 km, 98.2° (Epoch: 23 October)

Event Time Altitude Azimuth Distance (km) Brightness Sun altitude
Rises 04:03:06 0° 32° (NNE) 3,214 6.5 -25.5°
Reaches altitude 10° 04:05:40 10° 43° (NE) 2,291 5.9 -24.8°
Maximum altitude 04:09:59 29° 102° (ESE) 1,377 5.0 -23.8°
Drops below altitude 10° 04:14:19 10° 161° (SSE) 2,300 5.8 -22.7°
Sets 04:16:53 0° 172° (S) 3,229 6.4 -22.0°
